Location: ??
(35.5052°N, 139.7262°E)
Time: 09:37:34
(UTC+00:00)

deb Agena D - Visible Passes

Search period start: 17 August 2022 00:00
Search period end: 27 August 2022 00:00
Orbit: 724 x 776 km, 70.3° (Epoch: 16 August)

Date Brightness Start Highest point End Pass type
(mag) Time Alt. Az. Time Alt. Az. Time Alt. Az.
17 Aug ? 10:09:49 10° NNW 10:15:08 82° ENE 10:20:27 10° SSE visible
18 Aug ? 11:10:15 10° NW 11:14:04 20° WSW 11:17:53 10° SSW visible
19 Aug ? 10:26:38 10° NW 10:31:32 39° WSW 10:36:26 10° S visible
20 Aug ? 09:43:34 10° NNW 09:48:54 77° WSW 09:54:11 10° SSE visible
21 Aug ? 10:44:43 10° WNW 10:47:41 15° W 10:50:39 10° SW visible
22 Aug ? 10:00:39 10° NW 10:05:12 30° WSW 10:09:45 10° SSW visible
24 Aug ? 10:19:50 10° W 10:21:16 11° W 10:22:42 10° WSW visible
25 Aug ? 09:34:47 10° NW 09:38:50 23° WSW 09:42:53 10° SSW visible
